Location: Saluda
(35.2377°N, 82.3468°W)
Time: 20:08:02
(UTC+00:00)

Vanguard 3 - Pass Details

Date: 08 October 2022
Orbit: 509 x 3255 km, 33.3° (Epoch: 01 December)

Event Time Altitude Azimuth Distance (km) Brightness Sun altitude
Rises 13:51:49 0° 263° (W) 2,603 9.3 26.6°
Reaches altitude 10° 13:53:48 10° 261° (W) 1,762 8.6 26.9°
Maximum altitude 13:57:35 70° 177° (S) 650 7.3 27.6°
Drops below altitude 10° 14:02:52 10° 94° (E) 2,442 10.8 28.5°
Sets 14:06:03 0° 92° (E) 3,743 11.4 29.1°
